GW5906 Weather Reports


time (UTC)temp
C
wind
direction
speed
KPH
gust
KPH
rain 1hr
cm
rain 24hr
cm
rain mn
cm
humidity
%
barometer
mb
20260505022830 18 180 4.8 9.7 0.00 0.00 0.00 73 1014.6
20260505022327 18 183 6.4 6.4 0.00 0.00 0.00 72 1014.6
20260505021824 18 161 6.4 6.4 0.00 0.00 0.00 72 1014.7
20260505021320 18 177 6.4 6.4 0.00 0.00 0.00 71 1014.8
20260505020816 18 168 4.8 6.4 0.00 0.00 0.00 70 1014.4
20260505020312 18 172 6.4 11.3 0.00 0.00 0.00 69 1014.6
20260505015809 18 172 6.4 9.7 0.00 0.00 0.00 70 1014.4
20260505015306 18 172 6.4 6.4 0.00 0.00 0.00 70 1014.5
20260505014803 18 175 4.8 6.4 0.00 0.00 0.00 70 1014.5
20260505014300 18 161 6.4 6.4 0.00 0.00 0.00 70 1014.4
20260505013757 18 169 6.4 9.7 0.00 0.00 0.00 69 1014.4
20260505013254 19 163 8.0 11.3 0.00 0.00 0.00 67 1014.1
20260505012752 18 163 8.0 9.7 0.00 0.00 0.00 68 1013.9
20260505012250 19 182 8.0 9.7 0.00 0.00 0.00 67 1014.1
20260505011745 19 163 9.7 11.3 0.00 0.00 0.00 67 1014.1
20260505011242 20 182 4.8 6.4 0.00 0.00 0.00 67 1014.4
20260505010738 20 156 6.4 9.7 0.00 0.00 0.00 65 1014.1
20260505010234 20 170 8.0 9.7 0.00 0.00 0.00 65 1014.2
20260505005731 20 181 6.4 9.7 0.00 0.00 0.00 65 1014.2
20260505005228 20 167 6.4 9.7 0.00 0.00 0.00 65 1014.0
20260505004725 20 180 6.4 6.4 0.00 0.00 0.00 66 1014.1
20260505004221 20 174 4.8 6.4 0.00 0.00 0.00 65 1014.3
20260505003719 20 178 6.4 11.3 0.00 0.00 0.00 62 1014.6
20260505003217 21 175 9.7 11.3 0.00 0.00 0.00 59 1014.4
20260505002712 21 165 4.8 9.7 0.00 0.00 0.00 58 1014.5
20260505002210 20 181 6.4 6.4 0.00 0.00 0.00 61 1014.5
20260505001708 21 176 4.8 4.8 0.00 0.00 0.00 60 1014.5
20260505001205 21 184 4.8 6.4 0.00 0.00 0.00 57 1014.4
20260505000702 21 173 3.2 6.4 0.00 0.00 0.00 56 1014.4
20260505000200 21 184 6.4 6.4 0.00 0.00 0.00 53 1014.6
20260504235656 22 185 6.4 9.7 0.00 0.00 0.00 52 1014.4
20260504235152 22 162 11.3 14.5 0.00 0.00 0.00 49 1014.6
20260504234650 22 186 9.7 12.9 0.00 0.00 0.00 48 1014.3
20260504234147 22 183 9.7 12.9 0.00 0.00 0.00 45 1014.3
20260504233642 23 189 11.3 12.9 0.00 0.00 0.00 43 1014.5
20260504233138 23 193 9.7 14.5 0.00 0.00 0.00 43 1014.5
20260504232637 23 204 8.0 11.3 0.00 0.00 0.00 44 1014.9
20260504232133 23 199 11.3 14.5 0.00 0.00 0.00 42 1014.8
20260504231630 23 184 12.9 17.7 0.00 0.00 0.00 42 1014.8
20260504231126 23 173 11.3 16.1 0.00 0.00 0.00 42 1014.8
20260504230622 23 140 11.3 16.1 0.00 0.00 0.00 42 1014.7
20260504230121 23 204 12.9 14.5 0.00 0.00 0.00 43 1014.8
20260504225619 23 175 11.3 12.9 0.00 0.00 0.00 42 1014.7
20260504225115 23 174 8.0 12.9 0.00 0.00 0.00 44 1014.9
20260504224612 24 171 12.9 20.9 0.00 0.00 0.00 40 1014.9
20260504224109 24 187 11.3 14.5 0.00 0.00 0.00 42 1014.8
20260504223606 24 186 11.3 16.1 0.00 0.00 0.00 41 1015.0
20260504223101 24 180 11.3 17.7 0.00 0.00 0.00 40 1015.2
20260504222559 24 180 12.9 14.5 0.00 0.00 0.00 42 1015.1
20260504222056 24 160 11.3 16.1 0.00 0.00 0.00 40 1015.2
20260504221553 24 153 12.9 20.9 0.00 0.00 0.00 41 1015.0
20260504221050 24 172 12.9 17.7 0.00 0.00 0.00 42 1015.3
20260504220546 24 176 12.9 14.5 0.00 0.00 0.00 40 1015.3
20260504220043 25 196 11.3 20.9 0.00 0.00 0.00 42 1015.3
20260504215539 24 161 16.1 20.9 0.00 0.00 0.00 41 1015.4
20260504215037 25 193 9.7 17.7 0.00 0.00 0.00 43 1015.4
20260504214533 24 241 12.9 17.7 0.00 0.00 0.00 40 1015.3
20260504214030 25 200 14.5 17.7 0.00 0.00 0.00 43 1015.4
20260504213526 25 189 11.3 16.1 0.00 0.00 0.00 44 1015.3
20260504213024 25 183 17.7 22.5 0.00 0.00 0.00 43 1015.4
20260504212519 25 192 14.5 16.1 0.00 0.00 0.00 40 1015.5
20260504212017 25 186 8.0 11.3 0.00 0.00 0.00 41 1015.8
20260504211513 25 191 6.4 11.3 0.00 0.00 0.00 42 1015.5
20260504211011 25 175 9.7 17.7 0.00 0.00 0.00 40 1015.7
20260504210508 25 174 14.5 25.7 0.00 0.00 0.00 43 1015.7
20260504210004 25 188 8.0 20.9 0.00 0.00 0.00 42 1015.7
20260504205502 25 149 6.4 6.4 0.00 0.00 0.00 44 1015.6
20260504205000 25 187 6.4 14.5 0.00 0.00 0.00 43 1015.6
20260504204458 25 174 9.7 14.5 0.00 0.00 0.00 46 1015.8
20260504203957 25 168 6.4 12.9 0.00 0.00 0.00 44 1016.0
20260504203454 25 189 4.8 14.5 0.00 0.00 0.00 44 1016.0
20260504202950 25 153 19.3 24.1 0.00 0.00 0.00 43 1016.0
20260504202447 25 169 11.3 20.9 0.00 0.00 0.00 41 1016.0
20260504201943 25 184 14.5 22.5 0.00 0.00 0.00 46 1016.3
20260504201441 25 210 12.9 20.9 0.00 0.00 0.00 45 1016.3
20260504200938 25 190 12.9 16.1 0.00 0.00 0.00 43 1016.4
20260504200435 25 157 8.0 16.1 0.00 0.00 0.00 43 1016.6
20260504195931 25 184 4.8 11.3 0.00 0.00 0.00 46 1016.5
20260504195427 25 178 14.5 20.9 0.00 0.00 0.00 47 1016.7
20260504194924 25 204 1.6 4.8 0.00 0.00 0.00 44 1016.8
20260504194420 25 193 14.5 27.4 0.00 0.00 0.00 41 1016.9
20260504193916 25 233 9.7 11.3 0.00 0.00 0.00 45 1017.1
20260504193414 25 199 14.5 17.7 0.00 0.00 0.00 46 1017.2
20260504192912 25 158 8.0 12.9 0.00 0.00 0.00 47 1017.2
20260504192409 25 163 3.2 4.8 0.00 0.00 0.00 47 1017.2
20260504191908 25 207 6.4 9.7 0.00 0.00 0.00 48 1017.1
20260504191405 25 210 4.8 11.3 0.00 0.00 0.00 42 1017.3
20260504190900 25 167 11.3 16.1 0.00 0.00 0.00 43 1017.5
20260504190356 25 185 14.5 22.5 0.00 0.00 0.00 45 1017.4
20260504185853 25 215 9.7 17.7 0.00 0.00 0.00 43 1017.2
20260504185350 25 163 6.4 11.3 0.00 0.00 0.00 42 1017.3
20260504184846 24 177 3.2 11.3 0.00 0.00 0.00 46 1017.4
20260504184342 25 169 19.3 22.5 0.00 0.00 0.00 43 1017.6
20260504183838 25 149 3.2 14.5 0.00 0.00 0.00 45 1017.6
20260504183336 24 136 11.3 16.1 0.00 0.00 0.00 43 1017.7
20260504182833 24 90 8.0 17.7 0.00 0.00 0.00 45 1017.7
20260504182331 24 146 11.3 16.1 0.00 0.00 0.00 46 1017.8
20260504181828 24 182 14.5 16.1 0.00 0.00 0.00 46 1017.8
20260504181325 24 161 9.7 14.5 0.00 0.00 0.00 47 1017.9
20260504180824 24 196 11.3 17.7 0.00 0.00 0.00 43 1018.1
20260504180322 24 182 3.2 9.7 0.00 0.00 0.00 45 1018.1
20260504175820 24 156 9.7 16.1 0.00 0.00 0.00 46 1018.0
20260504175316 24 175 3.2 14.5 0.00 0.00 0.00 44 1017.9
20260504174815 25 184 12.9 16.1 0.00 0.00 0.00 41 1018.1
20260504174312 25 179 8.0 20.9 0.00 0.00 0.00 44 1018.1
20260504173808 25 216 3.2 6.4 0.00 0.00 0.00 43 1018.2
20260504173305 25 165 8.0 9.7 0.00 0.00 0.00 45 1018.1
20260504172802 24 174 9.7 17.7 0.00 0.00 0.00 42 1018.2
20260504172259 23 182 11.3 20.9 0.00 0.00 0.00 43 1018.3
20260504171754 23 167 9.7 20.9 0.00 0.00 0.00 44 1018.2
20260504171252 23 176 17.7 24.1 0.00 0.00 0.00 41 1018.3
20260504170749 23 178 9.7 16.1 0.00 0.00 0.00 44 1018.0
20260504170246 23 202 17.7 22.5 0.00 0.00 0.00 44 1018.1
20260504160204 23 178 12.9 14.5 0.00 0.00 0.00 43 1018.7
20260504151132 23 179 12.9 16.1 0.00 0.00 0.00 49 1018.9
20260504150630 22 200 9.7 16.1 0.00 0.00 0.00 46 1018.9
20260504150126 22 140 6.4 12.9 0.00 0.00 0.00 47 1018.9
20260504141055 21 64 3.2 4.8 0.00 0.00 0.00 66 1019.1
20260504140551 20 63 0.0 4.8 0.00 0.00 0.00 68 1019.3
20260504130516 19 62 0.0 0.0 0.00 0.00 0.00 72 1019.1
20260504110403 11 151 0.0 0.0 0.00 0.00 0.00 96 1018.1
20260504100320 11 151 0.0 0.0 0.00 0.00 0.00 95 1018.3
20260504081714 12 166 0.0 0.0 0.00 0.00 0.00 89 1018.5
20260504081210 12 166 0.0 0.0 0.00 0.00 0.00 90 1018.1
20260504080707 12 166 1.6 3.2 0.00 0.00 0.00 90 1018.3
20260504080203 12 167 3.2 4.8 0.00 0.00 0.00 88 1018.4
20260504070131 12 151 0.0 0.0 0.00 0.00 0.00 89 1019.0
20260504050520 14 159 0.0 1.6 0.00 0.00 0.00 84 1019.6
20260504050016 14 157 3.2 4.8 0.00 0.00 0.00 82 1019.9
20260504045513 13 150 0.0 0.0 0.00 0.00 0.00 84 1019.7
20260504045009 14 150 0.0 0.0 0.00 0.00 0.00 82 1020.0
20260504044506 14 150 0.0 0.0 0.00 0.00 0.00 82 1019.8
20260504044003 14 150 0.0 0.0 0.00 0.00 0.00 81 1020.0
20260504043500 14 150 0.0 0.0 0.00 0.00 0.00 80 1020.1
20260504042958 14 150 0.0 0.0 0.00 0.00 0.00 81 1020.1
20260504042454 14 152 0.0 0.0 0.00 0.00 0.00 82 1020.1
20260504041951 14 149 0.0 0.0 0.00 0.00 0.00 82 1020.0
20260504041447 14 149 0.0 0.0 0.00 0.00 0.00 83 1020.2
20260504040943 14 152 0.0 0.0 0.00 0.00 0.00 81 1020.0
20260504040441 15 151 0.0 0.0 0.00 0.00 0.00 81 1020.2
20260504035937 15 151 0.0 0.0 0.00 0.00 0.00 80 1020.2
20260504035435 15 144 0.0 0.0 0.00 0.00 0.00 80 1020.1
20260504034931 15 149 0.0 1.6 0.00 0.00 0.00 80 1020.0
20260504034428 14 152 1.6 3.2 0.00 0.00 0.00 80 1020.1
20260504033925 13 149 0.0 0.0 0.00 0.00 0.00 83 1020.1
20260504033423 14 144 0.0 0.0 0.00 0.00 0.00 81 1020.1
20260504032920 15 149 0.0 0.0 0.00 0.00 0.00 80 1020.3
20260504032417 15 144 0.0 0.0 0.00 0.00 0.00 79 1020.2
20260504031913 15 144 0.0 0.0 0.00 0.00 0.00 78 1020.3
20260504031411 15 149 0.0 0.0 0.00 0.00 0.00 77 1020.3
20260504030907 16 144 0.0 0.0 0.00 0.00 0.00 78 1020.2
20260504030404 16 149 1.6 1.6 0.00 0.00 0.00 78 1020.3
20260504025900 15 161 3.2 3.2 0.00 0.00 0.00 79 1020.3
20260504025357 15 168 0.0 0.0 0.00 0.00 0.00 82 1020.3
20260504024854 15 169 0.0 0.0 0.00 0.00 0.00 83 1020.2
20260504024350 15 169 0.0 0.0 0.00 0.00 0.00 80 1020.2
20260504023848 16 169 0.0 0.0 0.00 0.00 0.00 78 1020.2
20260504023344 16 169 0.0 0.0 0.00 0.00 0.00 75 1019.8